• In Russia
  • List of Countries
  • For 7 days
  • Water Temperature
  • Satellite Maps
  • Weather Map
  • Weather Widgets
  • user-avatar
    Login

    Hourly Weather Tashkent

    Today, 26 May, Friday

    Time Temperature Precipitation Wind Pressure Humidity
    00:00 +23°C° 0 mm 2 mps 720 mmHg 46%
    01:00 +23°C° 0 mm 2 mps 720 mmHg 47%
    02:00 +22°C° 0 mm 1 mps 720 mmHg 48%
    03:00 +21°C° 0 mm 2 mps 720 mmHg 47%
    04:00 +21°C° 0 mm 2 mps 720 mmHg 46%
    05:00 +20°C° 0 mm 2 mps 720 mmHg 45%
    06:00 +24°C° 0 mm 2 mps 720 mmHg 41%
    07:00 +26°C° 0 mm 1 mps 721 mmHg 37%
    08:00 +28°C° 0 mm 1 mps 721 mmHg 33%
    09:00 +30°C° 0 mm 1 mps 722 mmHg 31%
    10:00 +31°C° 0 mm 1 mps 722 mmHg 28%
    11:00 +33°C° 0 mm 1 mps 722 mmHg 25%
    12:00 +34°C° 0 mm 1 mps 722 mmHg 23%
    13:00 +34°C° 0 mm 1 mps 722 mmHg 21%
    14:00 +35°C° 0 mm 1 mps 722 mmHg 20%
    15:00 +35°C° 0 mm 2 mps 722 mmHg 20%
    16:00 +35°C° 0 mm 2 mps 721 mmHg 21%
    17:00 +35°C° 0 mm 2 mps 721 mmHg 21%
    18:00 +31°C° 0 mm 3 mps 721 mmHg 26%
    19:00 +29°C° 0 mm 3 mps 721 mmHg 31%
    20:00 +26°C° 0 mm 3 mps 720 mmHg 36%
    21:00 +25°C° 0 mm 3 mps 721 mmHg 36%
    22:00 +25°C° 0 mm 3 mps 721 mmHg 36%
    23:00 +24°C° 0 mm 3 mps 721 mmHg 36%

    Tomorrow, 27 May, Saturday

    Time Temperature Precipitation Wind Pressure Humidity
    00:00 +24°C° 0 mm 3 mps 720 mmHg 36%
    01:00 +22°C° 0 mm 3 mps 720 mmHg 35%
    02:00 +22°C° 0 mm 3 mps 720 mmHg 34%
    03:00 +22°C° 0 mm 3 mps 720 mmHg 33%
    04:00 +22°C° 0 mm 3 mps 720 mmHg 31%
    05:00 +22°C° 0 mm 3 mps 720 mmHg 30%
    06:00 +25°C° 0 mm 3 mps 720 mmHg 29%
    07:00 +27°C° 0 mm 3 mps 721 mmHg 28%
    08:00 +29°C° 0 mm 3 mps 721 mmHg 27%
    09:00 +31°C° 0 mm 2 mps 721 mmHg 23%
    10:00 +32°C° 0 mm 2 mps 721 mmHg 19%
    11:00 +35°C° 0 mm 2 mps 721 mmHg 15%
    12:00 +35°C° 0 mm 1 mps 720 mmHg 15%
    13:00 +36°C° 0 mm 1 mps 720 mmHg 15%
    14:00 +35°C° 0 mm 0 mps 720 mmHg 14%
    15:00 +36°C° 0 mm 1 mps 720 mmHg 15%
    16:00 +36°C° 0 mm 1 mps 719 mmHg 16%
    17:00 +35°C° 0 mm 1 mps 719 mmHg 17%
    18:00 +34°C° 0 mm 2 mps 719 mmHg 21%
    19:00 +30°C° 0 mm 3 mps 719 mmHg 24%
    20:00 +28°C° 0 mm 4 mps 719 mmHg 28%
    21:00 +27°C° 0 mm 3 mps 719 mmHg 28%
    22:00 +26°C° 0 mm 3 mps 719 mmHg 27%
    23:00 +25°C° 0 mm 3 mps 719 mmHg 26%

    Day after tomorrow, 28 May, Sunday

    Time Temperature Precipitation Wind Pressure Humidity
    00:00 +25°C° 0 mm 3 mps 719 mmHg 28%
    01:00 +24°C° 0 mm 3 mps 718 mmHg 29%
    02:00 +24°C° 0 mm 2 mps 718 mmHg 30%
    03:00 +22°C° 0 mm 3 mps 718 mmHg 30%
    04:00 +22°C° 0 mm 3 mps 719 mmHg 31%
    05:00 +22°C° 0 mm 3 mps 719 mmHg 32%
    06:00 +25°C° 0 mm 3 mps 719 mmHg 32%
    07:00 +27°C° 0 mm 3 mps 719 mmHg 31%
    08:00 +29°C° 0 mm 2 mps 720 mmHg 31%
    09:00 +31°C° 0 mm 2 mps 720 mmHg 27%
    10:00 +32°C° 0 mm 2 mps 720 mmHg 24%
    11:00 +35°C° 0 mm 2 mps 720 mmHg 20%
    12:00 +36°C° 0 mm 2 mps 720 mmHg 19%
    13:00 +35°C° 0 mm 1 mps 720 mmHg 19%
    14:00 +36°C° 0 mm 1 mps 719 mmHg 18%
    15:00 +36°C° 0 mm 1 mps 719 mmHg 18%
    16:00 +37°C° 0 mm 2 mps 719 mmHg 18%
    17:00 +36°C° 0 mm 2 mps 719 mmHg 19%
    18:00 +34°C° 0 mm 2 mps 719 mmHg 23%
    19:00 +30°C° 0 mm 3 mps 719 mmHg 28%
    20:00 +27°C° 0 mm 3 mps 719 mmHg 32%
    21:00 +27°C° 0 mm 3 mps 719 mmHg 32%
    22:00 +26°C° 0 mm 3 mps 719 mmHg 31%
    23:00 +26°C° 0 mm 3 mps 719 mmHg 31%

    29 May, Monday

    Time Temperature Precipitation Wind Pressure Humidity
    00:00 +25°C° 0 mm 3 mps 719 mmHg 30%
    01:00 +25°C° 0 mm 3 mps 718 mmHg 29%
    02:00 +25°C° 0 mm 4 mps 718 mmHg 27%
    03:00 +25°C° 0 mm 4 mps 718 mmHg 26%
    04:00 +25°C° 0 mm 4 mps 718 mmHg 26%
    05:00 +23°C° 0 mm 4 mps 718 mmHg 25%
    06:00 +26°C° 0 mm 4 mps 718 mmHg 25%
    07:00 +29°C° 0 mm 4 mps 718 mmHg 25%
    08:00 +31°C° 0 mm 3 mps 718 mmHg 25%
    09:00 +34°C° 0 mm 4 mps 718 mmHg 21%
    10:00 +36°C° 0 mm 4 mps 718 mmHg 18%
    11:00 +38°C° 0 mm 4 mps 718 mmHg 14%
    12:00 +40°C° 0 mm 4 mps 718 mmHg 13%
    13:00 +40°C° 0 mm 4 mps 718 mmHg 12%
    14:00 +41°C° 0 mm 4 mps 717 mmHg 11%
    15:00 +39°C° 0 mm 3 mps 717 mmHg 14%
    16:00 +37°C° 0 mm 3 mps 717 mmHg 16%
    17:00 +36°C° 0 mm 2 mps 716 mmHg 19%
    18:00 +34°C° 0 mm 3 mps 716 mmHg 20%
    19:00 +32°C° 0 mm 4 mps 716 mmHg 22%
    20:00 +29°C° 0 mm 5 mps 716 mmHg 23%
    21:00 +29°C° 0 mm 4 mps 716 mmHg 24%
    22:00 +28°C° 0 mm 4 mps 717 mmHg 25%
    23:00 +27°C° 0 mm 3 mps 717 mmHg 26%

    30 May, Tuesday

    Time Temperature Precipitation Wind Pressure Humidity
    00:00 +26°C° 0.3 mm 3 mps 717 mmHg 32%
    01:00 +25°C° 0.3 mm 2 mps 718 mmHg 39%
    02:00 +24°C° 0.3 mm 1 mps 718 mmHg 46%
    03:00 +23°C° 0.4 mm 2 mps 719 mmHg 51%
    04:00 +20°C° 0.4 mm 3 mps 720 mmHg 55%
    05:00 +19°C° 0.4 mm 4 mps 721 mmHg 60%
    06:00 +19°C° 0.1 mm 4 mps 722 mmHg 55%
    07:00 +20°C° 0.1 mm 3 mps 723 mmHg 50%
    08:00 +20°C° 0.1 mm 2 mps 723 mmHg 45%
    09:00 +21°C° 0 mm 2 mps 724 mmHg 40%
    10:00 +22°C° 0 mm 3 mps 724 mmHg 35%
    11:00 +24°C° 0 mm 3 mps 724 mmHg 29%
    12:00 +25°C° 0 mm 3 mps 724 mmHg 27%
    13:00 +26°C° 0 mm 3 mps 723 mmHg 24%
    14:00 +27°C° 0 mm 3 mps 723 mmHg 22%
    15:00 +27°C° 0 mm 3 mps 723 mmHg 22%
    16:00 +26°C° 0 mm 3 mps 723 mmHg 22%
    17:00 +26°C° 0 mm 4 mps 723 mmHg 22%
    18:00 +24°C° 0 mm 3 mps 723 mmHg 27%
    19:00 +21°C° 0 mm 3 mps 723 mmHg 32%
    20:00 +18°C° 0 mm 3 mps 723 mmHg 38%
    21:00 +18°C° 0 mm 2 mps 723 mmHg 39%
    22:00 +17°C° 0 mm 2 mps 723 mmHg 40%
    23:00 +16°C° 0 mm 2 mps 723 mmHg 41%

    31 May, Wednesday

    Time Temperature Precipitation Wind Pressure Humidity
    00:00 +15°C° 0 mm 2 mps 722 mmHg 42%
    01:00 +15°C° 0 mm 2 mps 722 mmHg 42%
    02:00 +14°C° 0 mm 2 mps 721 mmHg 43%
    03:00 +14°C° 0 mm 2 mps 721 mmHg 43%
    04:00 +14°C° 0 mm 2 mps 721 mmHg 43%
    05:00 +13°C° 0 mm 2 mps 721 mmHg 43%
    06:00 +16°C° 0 mm 1 mps 721 mmHg 39%
    07:00 +19°C° 0 mm 1 mps 721 mmHg 34%
    08:00 +22°C° 0 mm 1 mps 722 mmHg 29%
    09:00 +24°C° 0 mm 1 mps 721 mmHg 26%
    10:00 +25°C° 0 mm 1 mps 721 mmHg 23%
    11:00 +27°C° 0 mm 1 mps 721 mmHg 20%
    12:00 +28°C° 0 mm 1 mps 721 mmHg 19%
    13:00 +29°C° 0 mm 1 mps 720 mmHg 18%
    14:00 +29°C° 0 mm 1 mps 720 mmHg 17%
    15:00 +29°C° 0 mm 1 mps 720 mmHg 17%
    16:00 +29°C° 0 mm 2 mps 720 mmHg 17%
    17:00 +29°C° 0 mm 2 mps 720 mmHg 18%
    18:00 +26°C° 0 mm 2 mps 719 mmHg 23%
    19:00 +24°C° 0 mm 2 mps 719 mmHg 28%
    20:00 +20°C° 0 mm 2 mps 719 mmHg 33%
    21:00 +19°C° 0 mm 2 mps 719 mmHg 34%
    22:00 +19°C° 0 mm 2 mps 719 mmHg 35%
    23:00 +18°C° 0 mm 2 mps 719 mmHg 35%
    Show more